Location: Petruro
(41.0333°N, 14.7833°E)
Time: 08:07:31
(UTC+00:00)

DELTA 2 R/B (1) - Pass Details

Date: 25 October 2021
Orbit: 790 x 802 km, 39.6° (Epoch: 28 November)

Event Time Altitude Azimuth Distance (km) Brightness Sun altitude
Rises 17:33:17 0° 198° (SSW) 3,288 7.0 -17.1°
Reaches altitude 10° 17:36:51 10° 175° (S) 2,360 6.0 -17.8°
Enters shadow 17:39:48 15° 143° (SE) 2,042 5.4 -18.4°
